Temperature
21 21 21 21 21 22 23 23 24 23 24 24 24 23 22 21 20 18 18 18 17 17 17 17 17 17 16 16 16 16 16 17 17 17 17 17 17 17 17 17 17 17 17 17 17 17 17 17 18
21 21 21 22 22 22 22 23 23 23 24 24 24 23 22 21 19 18 18 18 17 17 16 17 17 16 16 16 16 16 16 16 16 16 17 17 17 17 17 17 17 17 17 17 17 17 17 17 17
22 22 22 23 23 23 23 23 23 24 24 24 23 22 21 20 19 18 18 18 17 17 17 17 16 16 16 16 16 16 16 16 16 16 16 16 17 17 17 17 17 17 17 17 17 17 17 17 17
22 23 24 23 23 24 24 24 24 24 24 23 23 21 20 19 19 18 18 18 17 17 17 17 17 16 16 16 16 16 16 16 16 16 16 16 16 17 16 16 16 16 16 17 17 17 17 17 17
23 24 23 23 23 24 25 25 25 24 24 23 22 21 19 19 19 18 18 18 18 17 17 17 17 17 16 16 16 16 16 16 16 16 16 16 16 16 16 16 16 16 16 16 16 16 17 17 17
24 25 23 23 23 24 25 25 24 24 23 23 22 21 19 19 18 18 18 18 18 17 17 17 17 17 17 16 16 16 16 16 16 16 16 16 16 16 16 16 16 16 16 16 16 16 17 17 17
24 24 24 23 23 23 24 24 24 24 23 23 22 21 19 19 18 18 18 18 18 18 17 17 17 17 17 17 16 16 16 16 16 16 16 16 16 16 16 16 16 16 16 16 16 16 16 17 17
24 24 24 24 23 23 24 24 24 23 23 23 22 21 20 19 19 18 18 18 18 18 18 18 17 17 17 17 17 16 16 16 16 16 16 16 16 16 16 16 16 16 16 16 16 16 16 16 16
25 23 23 24 23 23 24 24 24 23 23 22 22 21 20 19 19 19 19 19 18 18 18 18 18 17 17 17 17 16 16 16 16 16 16 16 16 16 16 16 16 16 16 16 16 16 16 16 16
25 23 24 25 25 24 24 24 24 23 23 22 21 20 20 19 19 19 19 19 19 18 18 18 18 18 17 17 17 17 16 16 16 16 16 16 16 16 16 16 16 16 16 16 16 16 16 16 16
26 24 25 25 25 25 25 24 24 23 22 22 21 20 20 20 20 20 19 19 19 19 19 18 18 18 18 17 17 17 17 16 16 16 16 16 16 16 16 16 16 16 16 16 16 16 16 16 16
26 25 25 25 25 24 24 24 23 23 22 22 21 20 20 20 20 20 20 20 19 19 19 19 18 18 18 18 17 17 17 17 17 17 16 16 16 16 16 16 16 16 16 16 16 16 16 16 16
25 25 25 25 25 24 24 24 23 23 22 22 21 21 20 20 20 20 20 20 19 19 19 19 18 18 18 18 17 17 17 17 17 17 17 17 16 16 16 16 16 16 16 16 16 16 16 16 16
26 25 25 25 25 25 24 24 23 23 22 22 21 21 21 20 20 20 20 20 19 19 19 19 18 18 18 18 17 17 17 17 17 17 17 17 17 16 16 16 16 16 16 16 16 16 16 15 15
26 25 25 25 25 25 24 23 23 23 22 22 21 21 21 20 20 20 20 20 19 19 19 18 18 18 18 17 17 17 17 17 17 17 17 17 17 16 16 16 16 16 16 16 15 16 15 15 15
26 25 24 25 25 25 24 22 24 23 22 22 22 21 21 20 20 20 20 20 19 19 19 18 18 18 18 17 17 17 17 17 17 17 17 17 17 16 16 16 16 16 16 16 15 15 15 15 15
25 24 24 25 26 25 24 22 23 23 23 22 22 21 21 20 20 20 20 20 19 19 19 18 18 18 17 17 17 17 17 17 17 16 16 16 16 16 16 16 16 16 16 15 15 15 15 15 15
24 25 25 25 25 25 24 23 24 23 23 23 22 22 21 20 20 20 20 19 19 19 19 18 18 18 17 17 17 17 17 17 16 16 16 16 16 16 16 16 16 16 15 15 15 15 15 15 15
26 25 25 25 26 25 24 23 23 23 23 23 22 22 21 21 20 20 19 19 19 19 19 18 18 17 17 17 17 17 16 16 16 16 16 16 16 16 16 16 16 16 15 15 15 15 15 15 15
26 25 25 25 26 25 24 24 24 24 23 22 22 22 21 21 20 20 19 19 19 19 19 18 18 17 17 17 17 16 16 16 16 16 16 16 16 16 16 16 16 15 15 15 15 15 15 15 15
26 25 25 24 25 25 24 23 23 24 23 23 22 22 21 21 20 20 19 19 19 19 18 18 18 17 17 17 17 16 16 16 16 16 16 16 16 16 16 16 15 15 15 15 15 15 15 15 15
25 26 25 25 24 23 25 22 23 23 23 23 22 22 21 21 20 20 19 19 19 18 18 18 18 17 17 17 16 16 16 16 16 16 16 16 16 16 15 15 15 15 15 15 15 15 15 15 15
25 26 25 25 24 24 25 24 23 23 22 22 22 22 21 21 20 20 19 19 19 18 18 18 18 17 17 17 16 16 16 16 16 16 16 16 16 15 15 15 15 15 15 15 15 15 15 15 15
26 25 25 25 24 23 25 24 22 23 23 23 22 22 21 21 20 20 19 19 18 18 18 18 17 17 17 17 16 16 16 16 16 16 16 16 16 16 16 15 15 15 15 15 15 15 15 15 15
25 24 23 23 22 23 25 24 23 24 24 23 23 22 21 21 20 20 19 19 18 18 18 17 17 17 17 17 16 16 16 16 16 16 16 16 16 16 15 15 16 15 15 15 15 15 15 15 15
25 24 22 22 23 24 25 23 23 24 24 23 22 22 21 21 20 19 19 18 18 18 17 17 17 17 17 17 17 17 16 16 16 16 16 16 16 16 16 15 16 15 15 15 15 15 15 15 15
25 24 25 24 24 23 24 23 23 24 23 23 22 22 21 20 20 19 19 18 18 17 17 17 17 17 17 17 17 17 16 16 16 16 16 16 16 16 16 16 16 15 15 15 15 15 15 15 15
25 25 24 23 22 22 23 23 22 22 22 22 22 21 21 20 20 19 18 18 18 17 17 17 17 17 17 17 17 17 16 16 16 16 16 16 16 16 16 16 16 15 15 15 15 15 15 15 15
24 24 24 24 23 22 22 22 24 23 22 22 22 22 21 20 20 19 18 18 18 17 17 17 17 17 17 17 17 16 16 16 16 16 16 16 16 16 16 16 15 15 15 15 15 15 15 15 15
25 25 24 23 23 23 22 22 24 24 23 23 22 22 21 20 20 19 18 18 18 17 17 17 17 17 17 17 16 16 16 16 16 16 16 16 16 16 16 16 15 15 15 15 15 15 15 14 15
Wind_Speed
11 11 7 3 2 1 6 7 9 9 9 10 10 10 13 13 9 8 3 5 8 9 11 11 10 10 10 10 10 11 11 12 12 12 12 12 12 11 11 11 11 11 11 11 11 10 10 9 9
11 7 4 3 1 3 7 8 10 10 7 6 10 13 13 12 11 8 4 5 8 10 12 11 10 10 10 11 11 11 12 12 12 12 12 12 12 11 11 11 11 11 11 12 11 10 10 10 9
11 8 4 1 4 7 7 8 9 8 8 8 9 11 9 8 9 6 5 6 9 11 13 11 10 10 10 11 12 11 11 12 12 12 12 11 11 11 10 11 10 11 11 11 11 10 10 10 9
6 4 2 2 9 11 9 8 7 8 8 9 9 9 9 9 8 8 6 8 10 10 13 11 10 10 11 11 11 11 11 11 11 11 12 11 11 11 10 11 10 10 10 10 10 10 11 10 10
4 2 1 5 10 10 9 9 9 10 9 11 12 11 10 10 10 9 6 7 9 10 12 12 11 11 11 11 11 11 11 11 11 10 11 11 11 10 10 11 10 10 11 11 11 10 11 10 10
3 1 2 6 10 9 8 8 9 10 10 10 12 11 8 9 8 7 6 7 7 9 10 11 11 11 11 11 11 11 10 10 9 9 9 10 10 9 10 10 10 10 11 10 11 11 11 11 10
2 1 4 8 8 8 8 8 8 8 10 8 8 9 8 9 6 6 6 7 6 7 8 9 12 12 12 11 10 9 8 8 7 7 7 8 8 9 10 10 10 11 10 10 10 11 11 11 10
2 1 5 7 7 7 7 7 8 8 8 6 6 7 7 8 7 6 5 6 6 6 6 6 9 12 12 11 10 9 7 6 5 5 5 6 7 8 10 11 10 10 10 10 10 9 9 9 9
1 2 5 7 6 6 6 8 8 7 9 10 11 11 11 10 8 6 5 5 5 6 5 5 6 8 9 11 10 9 8 6 5 4 4 4 5 8 9 10 10 9 9 8 8 7 7 6 6
1 4 8 7 6 6 6 7 7 6 8 9 11 12 11 8 7 6 6 6 5 4 4 5 5 5 6 6 9 7 7 6 5 4 4 4 7 8 10 9 8 7 7 5 4 5 4 3 3
5 6 7 8 8 6 6 7 7 7 7 8 9 10 8 6 5 5 6 6 6 5 5 5 4 5 6 4 6 4 5 4 4 4 5 5 6 8 9 7 6 5 4 3 3 3 3 4 5
6 7 6 6 7 6 6 7 8 8 7 9 10 9 7 5 4 4 6 7 6 6 5 4 4 5 5 6 4 4 3 3 4 4 7 6 3 4 4 4 4 4 5 4 4 4 6 7 8
6 6 6 6 6 5 7 7 7 7 7 9 10 8 6 5 4 4 6 6 7 6 4 6 5 6 5 4 2 4 4 3 5 4 5 6 4 3 3 4 4 4 5 4 4 5 6 6 7
5 5 5 5 5 5 6 6 6 6 7 8 8 7 6 5 4 3 5 6 7 6 5 5 5 5 5 4 3 4 5 5 5 5 5 7 6 4 3 4 4 4 5 5 6 6 5 6 6
4 4 5 5 5 4 4 4 5 6 7 7 7 7 7 5 4 3 4 6 6 6 6 6 5 6 6 5 4 5 5 6 4 4 5 6 6 6 5 4 4 4 6 7 6 6 5 4 5
5 4 4 4 4 3 3 3 5 6 7 6 6 6 5 4 4 3 4 5 6 6 7 6 5 6 6 5 4 3 5 5 4 4 5 5 7 9 6 3 3 5 6 5 3 3 3 4 4
4 3 3 4 4 3 3 3 5 6 6 6 6 7 6 5 4 4 5 5 5 6 7 6 5 5 6 5 4 4 4 3 4 5 6 6 7 8 6 3 3 6 4 3 4 4 4 4 3
2 0 1 3 3 2 3 3 5 5 4 5 5 6 6 6 5 5 5 5 4 5 6 7 5 5 6 4 3 3 3 2 4 4 5 6 6 7 6 3 4 5 4 3 4 3 3 2 2
4 2 1 2 2 1 3 4 4 4 3 3 4 3 5 6 6 5 5 4 4 4 5 7 5 5 5 3 2 2 2 2 3 3 4 4 5 6 5 3 4 4 3 3 4 3 2 2 2
4 3 0 2 2 1 2 4 4 5 4 3 3 4 4 4 6 5 4 4 4 4 3 5 5 6 5 3 2 2 2 2 2 2 4 5 5 5 4 3 3 3 3 4 4 3 2 1 1
2 2 2 2 3 4 3 2 5 6 5 4 2 3 5 5 6 6 4 4 4 4 4 4 5 6 5 4 2 2 2 1 2 3 2 3 5 5 5 4 3 3 3 3 3 2 2 1 1
3 2 3 4 5 4 5 2 4 6 6 5 3 3 5 5 5 6 5 4 4 4 4 4 4 5 5 4 2 1 2 2 2 2 2 2 4 4 3 3 3 3 3 3 2 2 1 1 1
3 4 6 7 7 7 5 3 3 5 5 5 4 4 5 6 5 6 5 4 4 4 3 4 4 5 4 4 2 1 2 2 2 3 3 2 2 3 2 3 3 2 3 3 3 3 2 1 1
4 6 8 8 6 5 4 2 2 3 3 4 4 4 6 6 6 5 5 5 4 5 4 3 4 4 3 3 3 2 2 2 2 2 2 2 2 1 1 3 2 2 2 2 2 3 3 2 2
5 5 3 3 4 2 1 2 3 5 4 4 4 4 6 6 6 6 5 5 4 4 3 3 4 3 3 3 3 3 3 3 2 3 3 3 2 2 2 2 2 2 2 3 3 2 2 2 2
5 5 3 3 2 1 1 2 5 8 7 6 6 5 6 6 5 5 5 5 5 4 4 3 3 3 2 3 3 3 3 2 2 2 2 3 3 2 3 3 3 3 3 3 3 2 1 2 2
4 4 4 5 6 4 1 4 5 6 6 6 6 6 6 6 5 5 5 5 5 4 4 3 3 3 3 3 2 2 2 2 1 2 2 2 2 3 3 3 3 4 3 3 3 2 2 2 2
6 6 4 3 3 4 1 3 3 4 3 4 5 5 5 6 5 5 5 4 4 4 3 4 3 3 3 2 2 2 2 2 1 0 1 2 3 3 3 3 4 4 3 3 3 2 2 2 2
5 5 4 4 3 3 3 2 5 6 5 4 4 5 5 5 5 5 4 4 4 4 4 3 2 2 2 2 2 3 2 2 2 1 1 1 2 3 3 3 3 3 4 4 3 2 2 2 1
5 5 5 3 3 3 3 1 5 6 6 4 4 5 6 5 5 5 4 4 3 4 4 3 3 3 2 2 2 1 2 3 2 2 2 2 2 2 2 2 2 2 3 3 4 3 2 2 1
Wind_Direction
278 254 243 261 250 109 66 62 60 48 55 48 52 64 64 53 55 87 109 78 90 95 94 81 67 64 63 65 66 67 67 65 67 68 67 67 70 72 75 78 76 74 72 70 70 69 71 76 78
281 276 259 235 259 87 70 69 67 58 64 67 60 66 70 65 73 95 103 88 91 89 87 81 74 71 70 71 71 71 69 69 68 68 67 66 71 75 76 78 77 74 71 70 69 67 71 73 74
266 266 260 271 45 63 74 72 78 67 57 65 72 62 56 67 73 93 111 112 93 89 89 86 81 78 76 75 74 73 70 71 70 68 68 67 70 74 78 80 79 77 75 74 70 68 69 70 71
269 258 245 68 69 67 73 80 83 81 67 63 75 75 68 63 81 98 109 101 97 99 100 97 90 87 85 81 78 75 73 71 70 69 68 67 69 73 76 78 79 80 79 79 75 70 70 69 66
246 258 96 83 74 72 69 72 78 77 71 72 79 87 85 81 91 101 100 95 101 104 107 108 106 99 93 87 82 78 76 72 70 69 69 68 71 75 77 76 75 78 78 79 80 76 72 68 62
274 255 92 84 81 73 66 65 71 81 86 90 95 97 95 101 93 92 94 94 99 109 113 121 122 113 104 94 88 86 80 75 72 72 72 73 74 79 82 80 78 80 79 79 80 78 75 70 62
309 354 84 94 92 80 70 61 64 71 76 76 96 101 110 106 109 111 104 104 104 107 118 131 140 129 118 109 101 98 93 85 81 80 81 83 82 84 88 85 82 83 83 82 81 79 77 73 66
308 349 85 87 92 87 83 78 75 75 73 70 85 103 120 127 130 121 115 114 116 111 114 122 133 138 135 129 124 122 120 112 106 103 98 100 98 93 92 90 88 87 88 87 86 85 83 79 72
319 65 74 76 79 94 96 89 84 87 84 72 73 88 113 131 132 131 125 109 100 100 116 118 119 128 134 136 136 148 149 150 147 155 154 159 134 111 100 96 98 96 94 95 96 95 95 90 79
60 70 74 77 78 88 93 93 93 93 90 92 94 98 117 131 134 132 125 118 113 112 117 117 120 118 109 102 128 146 141 151 163 146 140 143 108 97 104 109 110 111 109 110 118 120 122 117 104
74 73 71 79 84 86 92 92 90 94 95 98 112 118 123 128 124 116 115 108 114 115 102 108 104 100 97 94 101 98 97 115 116 108 104 89 109 125 126 135 144 146 134 110 108 117 95 85 82
85 83 80 80 82 87 85 83 78 75 83 105 109 121 129 127 115 115 111 103 99 90 93 93 87 96 92 85 89 101 90 94 86 77 89 83 72 95 113 111 113 115 96 75 68 70 69 62 67
92 92 93 98 99 103 96 93 92 89 93 104 112 120 125 111 99 98 106 108 108 111 109 93 83 84 86 81 83 96 76 61 81 66 84 90 75 74 90 101 97 88 91 91 74 64 62 58 56
95 103 111 108 103 109 106 109 107 109 116 118 119 122 113 104 97 97 113 109 110 111 109 99 92 85 92 93 84 81 83 76 59 44 67 90 90 82 67 82 81 81 78 79 80 74 66 66 60
152 158 139 137 134 127 111 91 110 127 127 129 131 126 123 126 124 121 109 110 110 112 98 83 90 90 83 73 62 73 68 72 64 36 37 74 83 85 79 78 80 76 76 74 71 75 72 75 70
206 192 151 140 149 159 166 109 112 135 138 137 134 129 124 117 120 111 97 99 107 107 103 97 83 86 86 85 67 70 72 67 67 49 31 52 73 87 75 67 76 78 74 78 79 62 68 68 62
217 189 150 143 155 158 137 121 130 148 153 152 148 145 144 137 126 112 105 99 100 108 109 101 82 88 86 87 91 67 72 75 71 58 32 33 57 83 86 73 73 81 79 71 75 61 64 75 73
284 179 153 130 144 153 132 129 141 148 159 155 149 148 149 143 137 117 98 100 107 112 116 109 101 93 95 73 73 76 57 54 64 69 52 44 47 70 87 97 81 77 77 75 82 86 78 88 84
309 312 72 97 131 162 127 121 131 141 151 148 147 142 143 138 125 115 121 121 125 117 116 118 126 109 96 86 75 76 68 61 53 56 66 56 51 67 78 77 77 76 77 78 86 73 77 69 75
280 289 72 122 133 199 148 142 135 132 139 148 152 146 132 126 129 121 125 129 132 125 118 120 114 109 100 95 106 110 99 95 96 56 46 46 52 60 79 100 101 96 90 72 75 75 44 38 59
284 330 345 323 284 243 210 172 146 135 124 123 136 141 137 137 143 139 142 123 127 127 122 114 116 113 112 106 77 89 96 88 89 83 61 49 53 48 46 65 100 118 122 111 103 99 93 37 349
307 349 285 268 271 251 224 204 159 148 137 132 137 144 139 134 131 129 133 134 132 130 128 119 114 111 107 104 81 90 103 106 122 124 120 95 78 68 41 55 79 103 108 113 125 113 93 82 7
320 310 279 272 271 276 242 219 148 143 140 143 146 154 147 138 137 134 131 129 119 111 113 112 109 103 103 105 105 73 89 102 105 114 114 108 88 75 51 61 63 83 106 114 104 97 79 82 52
277 274 263 251 257 268 249 208 127 139 135 143 146 149 148 142 139 135 127 121 109 103 105 111 111 107 113 130 147 144 128 132 124 120 133 135 122 109 98 93 88 84 93 103 102 104 101 76 50
265 282 281 229 216 238 154 118 94 99 99 117 137 145 146 141 141 139 135 135 123 122 121 121 120 127 148 170 175 159 163 166 150 142 159 151 141 143 156 126 119 103 95 94 91 101 107 109 91
251 261 292 312 304 324 151 116 100 94 89 95 114 125 129 126 130 135 137 138 136 139 145 156 145 154 172 199 192 167 161 171 143 151 158 149 147 147 140 141 133 113 102 102 98 87 88 99 101
282 263 277 293 294 292 163 116 112 99 99 100 110 118 120 130 131 131 130 137 143 152 161 167 161 169 194 212 188 162 157 154 165 178 152 140 143 142 139 140 129 123 116 108 106 101 97 72 70
274 301 299 277 299 295 232 150 154 136 117 117 123 130 135 137 136 135 141 146 147 149 153 164 172 183 198 219 193 164 160 166 181 143 132 145 146 140 150 160 144 137 131 115 100 86 94 92 91
233 250 271 290 289 291 311 63 102 126 126 134 135 140 139 133 133 136 143 149 153 146 154 164 162 180 206 213 191 177 172 169 161 155 149 153 160 163 165 160 150 151 146 133 124 130 122 128 130
268 272 274 276 293 284 285 125 129 124 132 135 126 126 126 131 136 137 140 150 154 154 164 166 173 187 196 209 196 188 163 167 181 178 183 186 175 168 158 142 136 139 135 139 145 148 142 135 115
Height
1502 1502 1503 1504 1505 1509 1511 1508 1505 1505 1506 1508 1507 1508 1513 1516 1521 1532 1532 1530 1529 1528 1527 1527 1526 1526 1525 1525 1525 1525 1525 1525 1525 1525 1525 1525 1525 1525 1526 1526 1526 1527 1528 1528 1529 1530 1530 1531 1531
1502 1503 1505 1505 1507 1515 1516 1508 1508 1508 1509 1509 1510 1512 1515 1521 1525 1528 1530 1531 1530 1530 1528 1528 1527 1527 1527 1527 1527 1526 1526 1526 1526 1526 1526 1527 1527 1527 1527 1528 1528 1529 1529 1530 1530 1531 1532 1532 1533
1502 1503 1505 1503 1506 1513 1515 1509 1509 1510 1510 1510 1513 1516 1520 1525 1527 1529 1530 1531 1531 1530 1529 1529 1529 1528 1528 1528 1528 1528 1528 1528 1528 1528 1528 1528 1528 1529 1529 1529 1530 1530 1531 1531 1532 1532 1533 1533 1534
1505 1505 1504 1506 1510 1509 1508 1509 1509 1511 1512 1512 1514 1520 1525 1528 1529 1530 1531 1532 1532 1531 1531 1531 1530 1530 1530 1529 1529 1529 1529 1529 1530 1530 1529 1529 1530 1530 1530 1531 1531 1532 1532 1533 1533 1534 1534 1535 1535
1506 1505 1506 1511 1511 1509 1509 1510 1510 1512 1514 1516 1518 1524 1528 1531 1531 1532 1532 1533 1533 1533 1532 1532 1532 1532 1531 1531 1531 1531 1531 1531 1531 1531 1531 1531 1531 1531 1532 1532 1532 1533 1533 1534 1534 1535 1535 1536 1536
1506 1504 1511 1517 1515 1512 1511 1512 1513 1514 1516 1518 1521 1525 1530 1532 1533 1533 1534 1534 1534 1534 1534 1533 1533 1533 1533 1533 1533 1533 1533 1533 1533 1533 1533 1533 1533 1533 1533 1533 1534 1534 1534 1535 1536 1536 1537 1537 1537
1508 1506 1510 1513 1517 1515 1514 1515 1515 1516 1518 1520 1522 1525 1531 1533 1534 1534 1535 1535 1535 1536 1535 1535 1535 1535 1535 1535 1535 1535 1535 1535 1535 1535 1535 1535 1535 1535 1535 1535 1535 1535 1536 1536 1537 1538 1538 1538 1539
1507 1508 1510 1513 1517 1518 1516 1516 1518 1519 1520 1522 1522 1526 1531 1534 1534 1535 1536 1536 1537 1537 1537 1537 1537 1537 1537 1537 1537 1537 1537 1537 1537 1537 1537 1537 1537 1537 1537 1537 1537 1537 1537 1538 1538 1539 1540 1540 1540
1508 1512 1516 1515 1517 1518 1517 1518 1520 1521 1522 1524 1525 1527 1531 1533 1534 1535 1536 1537 1538 1538 1539 1539 1540 1540 1539 1539 1539 1539 1539 1539 1539 1539 1539 1539 1539 1539 1539 1539 1539 1539 1539 1540 1540 1541 1541 1542 1542
1509 1515 1515 1513 1514 1516 1517 1519 1521 1522 1524 1526 1528 1531 1532 1534 1535 1536 1537 1538 1539 1539 1540 1540 1541 1541 1541 1542 1541 1541 1541 1541 1541 1542 1542 1542 1542 1542 1542 1541 1541 1541 1541 1542 1542 1543 1543 1543 1544
1510 1513 1513 1514 1516 1518 1519 1520 1522 1523 1526 1528 1530 1532 1533 1535 1536 1537 1537 1538 1539 1540 1541 1542 1542 1542 1542 1543 1543 1543 1544 1543 1544 1544 1544 1544 1544 1544 1543 1543 1543 1543 1543 1544 1544 1544 1545 1545 1546
1512 1514 1515 1517 1518 1520 1520 1522 1524 1525 1528 1529 1530 1533 1534 1535 1536 1537 1538 1539 1540 1541 1542 1543 1543 1543 1544 1544 1544 1544 1545 1545 1545 1545 1546 1546 1546 1546 1546 1545 1546 1546 1546 1546 1546 1546 1546 1547 1547
1514 1516 1517 1519 1520 1521 1522 1524 1526 1528 1529 1530 1532 1533 1534 1536 1537 1538 1539 1540 1541 1542 1543 1544 1544 1544 1545 1545 1545 1546 1546 1546 1546 1546 1547 1547 1547 1548 1548 1547 1547 1547 1548 1548 1548 1548 1548 1548 1549
1516 1517 1518 1519 1521 1521 1523 1524 1526 1529 1530 1531 1533 1534 1535 1536 1538 1539 1540 1540 1541 1543 1544 1544 1545 1545 1546 1546 1546 1547 1547 1548 1548 1548 1549 1549 1549 1549 1549 1549 1549 1549 1549 1549 1549 1549 1549 1550 1550
1516 1517 1518 1519 1520 1522 1524 1526 1526 1528 1530 1531 1533 1534 1536 1537 1538 1539 1540 1541 1542 1543 1544 1545 1546 1546 1546 1547 1548 1548 1548 1549 1549 1549 1550 1550 1550 1550 1550 1550 1550 1550 1551 1550 1550 1550 1551 1551 1551
1515 1517 1523 1519 1519 1520 1525 1533 1526 1528 1529 1531 1532 1534 1536 1537 1538 1539 1541 1542 1542 1543 1544 1546 1546 1547 1547 1548 1548 1549 1549 1550 1550 1551 1551 1551 1551 1551 1551 1551 1551 1551 1552 1551 1552 1552 1552 1552 1552
1517 1522 1523 1520 1517 1518 1523 1529 1526 1527 1528 1530 1532 1533 1535 1537 1538 1540 1541 1542 1543 1544 1545 1546 1547 1547 1548 1549 1549 1550 1550 1551 1551 1551 1552 1552 1552 1552 1552 1552 1552 1552 1552 1552 1553 1553 1553 1553 1553
1523 1520 1521 1520 1517 1518 1522 1526 1525 1526 1527 1529 1530 1532 1534 1536 1538 1540 1541 1542 1543 1545 1545 1546 1547 1548 1548 1549 1550 1550 1551 1551 1551 1552 1552 1552 1553 1553 1553 1553 1553 1553 1553 1553 1554 1554 1554 1555 1555
1515 1517 1520 1519 1515 1518 1522 1525 1524 1525 1527 1528 1530 1532 1533 1536 1538 1539 1541 1542 1544 1545 1546 1546 1547 1548 1549 1549 1550 1550 1551 1552 1552 1552 1552 1553 1553 1553 1553 1554 1554 1554 1554 1554 1554 1555 1555 1556 1556
1515 1518 1519 1517 1514 1517 1521 1523 1522 1524 1526 1528 1529 1531 1533 1535 1537 1539 1541 1542 1544 1545 1546 1546 1548 1548 1549 1550 1550 1551 1551 1552 1552 1552 1553 1553 1553 1553 1554 1554 1554 1554 1554 1555 1555 1555 1556 1556 1557
1516 1519 1520 1521 1517 1515 1520 1525 1523 1523 1525 1528 1529 1531 1532 1534 1536 1538 1540 1542 1543 1545 1546 1547 1548 1548 1549 1550 1551 1551 1551 1551 1552 1552 1552 1553 1553 1554 1554 1554 1555 1555 1555 1555 1555 1556 1556 1557 1557
1521 1515 1516 1519 1523 1525 1520 1535 1525 1522 1524 1526 1529 1530 1532 1534 1536 1538 1540 1541 1543 1544 1546 1547 1548 1548 1549 1550 1550 1551 1551 1552 1552 1552 1553 1553 1554 1554 1554 1555 1555 1555 1556 1556 1556 1556 1556 1557 1558
1518 1515 1515 1517 1520 1522 1517 1526 1528 1520 1525 1525 1527 1529 1531 1533 1535 1537 1539 1541 1542 1544 1546 1547 1548 1548 1549 1550 1550 1551 1551 1552 1552 1553 1553 1553 1553 1554 1554 1555 1555 1555 1556 1556 1556 1556 1557 1557 1557
1515 1516 1515 1515 1519 1531 1518 1524 1532 1523 1522 1523 1525 1528 1530 1532 1535 1537 1539 1541 1542 1543 1545 1546 1547 1548 1549 1549 1550 1551 1551 1552 1552 1552 1553 1553 1553 1553 1554 1554 1555 1555 1555 1556 1557 1557 1557 1557 1557
1516 1524 1532 1534 1535 1531 1511 1521 1527 1518 1518 1520 1524 1526 1529 1532 1534 1536 1538 1540 1542 1543 1544 1545 1547 1547 1548 1549 1550 1551 1551 1552 1552 1552 1552 1553 1553 1553 1554 1554 1555 1555 1556 1556 1556 1557 1557 1557 1557
1516 1521 1537 1543 1537 1528 1515 1525 1523 1516 1519 1521 1523 1526 1529 1531 1534 1536 1538 1539 1541 1542 1543 1545 1546 1546 1547 1548 1549 1550 1551 1551 1552 1552 1552 1553 1553 1553 1554 1554 1555 1555 1556 1556 1556 1557 1557 1557 1557
1517 1518 1515 1525 1525 1529 1524 1522 1520 1517 1519 1521 1524 1526 1529 1531 1534 1536 1537 1539 1540 1541 1542 1544 1545 1546 1546 1548 1549 1549 1550 1551 1551 1552 1552 1553 1553 1553 1554 1554 1554 1555 1555 1556 1556 1556 1557 1557 1557
1514 1514 1518 1526 1537 1540 1529 1526 1529 1523 1523 1522 1524 1526 1529 1531 1533 1535 1537 1538 1539 1540 1542 1543 1544 1544 1545 1546 1548 1548 1549 1549 1550 1551 1552 1552 1553 1553 1554 1554 1554 1554 1555 1555 1556 1556 1556 1557 1557
1516 1517 1517 1521 1523 1537 1541 1535 1516 1519 1520 1522 1523 1525 1528 1530 1533 1535 1536 1537 1539 1540 1541 1542 1542 1543 1544 1545 1546 1547 1548 1548 1549 1549 1550 1551 1552 1552 1553 1553 1554 1554 1554 1555 1555 1555 1556 1556 1556
1512 1514 1517 1529 1529 1525 1532 1533 1513 1516 1519 1521 1523 1525 1527 1530 1532 1534 1535 1537 1538 1539 1540 1540 1541 1542 1542 1543 1544 1545 1545 1546 1547 1548 1549 1549 1550 1551 1552 1552 1553 1553 1554 1554 1554 1555 1555 1555 1556